Tracking 17884 objects as of 3-December-2016
HD Live streaming from Space Station
objects crossing your sky now

SL-8 R/B

Track SL-8 R/B now!
10-day predictions


NORAD ID: 13950
Int'l Code: 1983-023B
Perigee: 954.0 km
Apogee: 1,010.5 km
Inclination: 83.0 °
Period: 104.6 minutes
Semi major axis: 7353 km
RCS: 4.7862 m2 (large)
Launch date: March 30, 1983
Source: Commonwealth of Independent States (former USSR) (CIS)
Launch site: PLESETSK MISSILE AND SPACE COMPLEX (PKMTR)

Note: This is a ROCKET BODY
Your satellite tracking list
Your tracking list is empty





NASA's NSSDC Master Catalog

Two Line Element Set (TLE):
1 13950U 83023B   16338.49910677  .00000101  00000-0  86761-4 0  9992
2 13950  82.9532 115.9002 0038409  94.9966 329.9301 13.76834064692088
Source of the keplerian elements: AFSPC